TimeCDT,TemperatureF,Dew PointF,Humidity,Sea Level PressureIn,VisibilityMPH,Wind Direction,Wind SpeedMPH,Gust SpeedMPH,PrecipitationIn,Events,Conditions,WindDirDegrees,DateUTC
12:53 AM,75.9,52.0,43,29.81,10.0,South,12.7,-,N/A,,Clear,180,2013-09-09 05:53:00
1:53 AM,73.0,52.0,48,29.81,10.0,SSW,10.4,-,N/A,,Clear,200,2013-09-09 06:53:00
2:53 AM,73.0,52.0,48,29.80,10.0,South,11.5,-,N/A,,Clear,180,2013-09-09 07:53:00
3:53 AM,70.0,52.0,53,29.80,10.0,South,9.2,-,N/A,,Clear,190,2013-09-09 08:53:00
4:53 AM,71.1,53.1,53,29.79,10.0,South,10.4,-,N/A,,Clear,190,2013-09-09 09:53:00
5:53 AM,71.1,54.0,55,29.79,10.0,SSW,12.7,-,N/A,,Clear,200,2013-09-09 10:53:00
6:53 AM,68.0,55.0,63,29.80,10.0,South,6.9,-,N/A,,Clear,190,2013-09-09 11:53:00
7:53 AM,64.9,55.0,70,29.82,10.0,South,4.6,-,N/A,,Clear,190,2013-09-09 12:53:00
8:53 AM,73.0,57.0,57,29.82,10.0,SSW,12.7,-,N/A,,Clear,200,2013-09-09 13:53:00
9:53 AM,79.0,57.9,48,29.81,10.0,SSW,17.3,25.3,N/A,,Clear,210,2013-09-09 14:53:00
10:53 AM,84.0,57.9,41,29.81,10.0,SSW,18.4,27.6,N/A,,Clear,210,2013-09-09 15:53:00
11:53 AM,88.0,57.9,36,29.81,10.0,SSW,19.6,-,N/A,,Clear,200,2013-09-09 16:53:00
12:53 PM,89.1,55.9,32,29.80,10.0,South,17.3,29.9,N/A,,Partly Cloudy,190,2013-09-09 17:53:00
1:53 PM,91.0,55.0,29,29.78,10.0,South,20.7,27.6,N/A,,Partly Cloudy,180,2013-09-09 18:53:00
2:53 PM,91.9,52.0,26,29.75,10.0,South,19.6,27.6,N/A,,Partly Cloudy,190,2013-09-09 19:53:00
3:53 PM,93.9,53.1,25,29.73,10.0,South,17.3,24.2,N/A,,Partly Cloudy,190,2013-09-09 20:53:00
4:53 PM,91.9,51.1,25,29.71,10.0,South,17.3,26.5,N/A,,Partly Cloudy,180,2013-09-09 21:53:00
5:53 PM,91.9,48.9,23,29.71,10.0,South,16.1,25.3,N/A,,Partly Cloudy,180,2013-09-09 22:53:00
6:53 PM,90.0,51.1,26,29.72,10.0,South,16.1,25.3,N/A,,Clear,170,2013-09-09 23:53:00
7:53 PM,86.0,53.1,32,29.73,10.0,South,13.8,20.7,N/A,,Clear,170,2013-09-10 00:53:00
8:53 PM,82.9,53.1,36,29.76,10.0,South,11.5,-,N/A,,Clear,170,2013-09-10 01:53:00
9:53 PM,81.0,53.1,38,29.78,10.0,South,11.5,-,N/A,,Clear,170,2013-09-10 02:53:00
10:53 PM,78.1,54.0,43,29.80,10.0,South,12.7,-,N/A,,Clear,170,2013-09-10 03:53:00
11:53 PM,77.0,55.0,47,29.81,10.0,South,12.7,-,N/A,,Clear,170,2013-09-10 04:53:00